Regional Weather Roundup
Issued by NWS Lake Charles, LA

Home | Current Version | Previous Version | Text Only | Print | Product List | Glossary On
Versions: 1 2 3 4 5 6 7 8 9 10 11 12 13 14 15 16 17 18 19 20 21 22 23 24 25 26 27 28 29 30 31 32 33 34 35 36 37 38 39 40 41 42 43 44 45 46 47 48 49 50
000
ASUS44 KLCH 300610
RWRLCH
RWRLCH
REGIONAL WEATHER ROUNDUP
NATIONAL WEATHER SERVICE LAKE CHARLES LA
100 AM CDT SAT AUG 30 2014

Note: "fair" indicates few or no clouds below 12,000 feet with no
significant weather and/or obstructions to visibility.


ACROSS SOUTHEAST TEXAS

CITY           SKY/WX    TMP DP  RH WIND       PRES   REMARKS
BEAUMONT       HVY RAIN  74  72  93 S17G29    29.92S VSB 1
BEAUMONT CITY  DRIZZLE   77  75  94 E8        29.92F
ORANGE         LGT RAIN  76  76 100 E6        29.95S
JASPER         CLOUDY    74  71  89 CALM      29.98S
$$

ACROSS CENTRAL LOUISIANA

CITY           SKY/WX    TMP DP  RH WIND       PRES   REMARKS
LEESVILLE      CLOUDY    75  73  94 SE8       29.97S
FULLERTON      MOCLDY    76  73  91 CALM      29.95S
ALEXANDRIA INT LGT RAIN  76  73  91 SE7       29.97S
ESLER FIELD    LGT RAIN  76  73  91 SE5       29.99S
DERIDDER       CLOUDY    76  74  93 CALM      29.98S
OAKDALE        CLOUDY    75  73  92 CALM      29.98S
OPELOUSAS        N/A     75  73  94 S5        29.98S
$$

ACROSS SOUTHWEST AND SOUTH CENTRAL LOUISIANA

CITY           SKY/WX    TMP DP  RH WIND       PRES   REMARKS
SULPHUR          N/A     76  75  95 E8        29.95S
LAKE CHARLES     N/A     76  74  93 E8        29.94F
CHENNAULT INT  LGT RAIN  76  74  92 E5        29.96S
CAMERON PHI    MOCLDY    81  77  89 SE9G20    29.94S
DEQUINCY         N/A     74  74  98 E3        29.95F
JENNINGS         N/A     76  74  96 SE6       29.96F
LAFAYETTE      LGT RAIN  76  75  97 S3        29.98S
NEW IBERIA     LGT RAIN  76  74  93 SE6       29.99S
ABBEVILLE        N/A     75  74  98 E5        29.97F
PATTERSON        N/A     73  73 100 NE3       30.01
SALT POINT       N/A     78  76  93 CALM      29.97F
$$

SELECTED SITES ACROSS THE REGION

CITY           SKY/WX    TMP DP  RH WIND       PRES   REMARKS
HOUSTON BUSH   MOCLDY    75  73  94 E5        29.91F
HOUSTON HOBBY  MOCLDY    77  73  87 E3        29.90S
GALVESTON        N/A     82  76  81 SE14      29.90F
COLLEGE STAT     N/A     76  70  82 SE8       29.93S
CONROE         CLOUDY    75  72  90 CALM      29.93F
HUNTSVILLE     MOCLDY    76  71  85 CALM      29.93F
LUFKIN         MOCLDY    77  72  84 E3        29.95F
SHREVEPORT     CLOUDY    76  72  87 CALM      29.96S
MONROE           N/A     79  75  87 SE3       30.01R
NATCHEZ MS       N/A     77  72  83 SE7       30.02S
BATON ROUGE    LGT RAIN  76  73  91 E5        30.00F
N.O. INTL ARPT CLOUDY    78  73  84 SE7       30.00F
SLIDELL          N/A     78  75  90 SE3       30.01F
$$

MARINE REPORTS

STATION/POSITION TIME  TEMP    WIND        PRES    VSBY  WAVE
                       AIR SEA DIR/SP/G                  HT/PER
                 (UTC) (F)     (DEG/KT/KT) (MB)    (MI)  (FT/S)
BUOY 30 S HIGH I 0600   83 85  130/ 16/ 19 1012.2R         5/ 5
SEA RIM ST PARK  0600   78     140/ 10/ 13 1014.1R
PORT ARTHUR      0600      85  110/  6/ 12 1013.3S
SABINE PASS N    0600   79 83  170/  9/ 12 1013.5R
TEXAS POINT      0600   80 83  160/ 14/ 16 1013.5R
CALCASIEU PASS   0600   81 82  150/ 13/ 17 1014.7R
LK CHARLES BEACH 0600   76 87              1014.8F
MARSH ISLAND     NOT AVBL
FRESH WATER LOCK 0600   80 81  120/ 11/ 17 1014.5F
AMERADA PASS     0600   79 84  100/  6/  8 1014.8R
$$


USA.gov is the U.S. government's official web portal to all federal, state and local government web resources and services.